AVA9700 SKEJ-SKBO

Flight info

Callsign AVA9700
Flight time 0h 29m
Altitude 22000
Route AKSOK1B AKSOK G431 ILSEV ILSEV5E
Aircraft A320/M-SDE3FGHIRWY/LB1

Departure

Time 2026-05-07 22:41
Airport Yariguíes Airport (SKEJ)

Arrival

Time 2026-05-07 23:10
Airport El Dorado International Airport (SKBO)
Time Latitude Longitude Altitude Speed Heading
2026-05-07 22:02 7.02463 -73.80841 426 ft 0 kts 302°
2026-05-07 22:31 7.02460 -73.80836 414 ft 4 kts 302°
2026-05-07 22:31 7.02448 -73.80818 417 ft 4 kts 311°
2026-05-07 22:31 7.02428 -73.80806 423 ft 4 kts
2026-05-07 22:32 7.02403 -73.80813 414 ft 3 kts 30°
2026-05-07 22:32 7.02399 -73.80815 414 ft 0 kts 31°
2026-05-07 22:38 7.02415 -73.80805 415 ft 10 kts 31°
2026-05-07 22:38 7.02506 -73.80748 421 ft 17 kts 36°
2026-05-07 22:39 7.02561 -73.80646 416 ft 19 kts 75°
2026-05-07 22:39 7.02649 -73.80558 421 ft 19 kts 28°
2026-05-07 22:39 7.02766 -73.80488 420 ft 21 kts 31°
2026-05-07 22:39 7.02892 -73.80411 417 ft 22 kts 31°
2026-05-07 22:40 7.03027 -73.80329 422 ft 22 kts 30°
2026-05-07 22:40 7.03105 -73.80304 424 ft 8 kts 357°
2026-05-07 22:40 7.03134 -73.80286 421 ft 4 kts 81°
2026-05-07 22:40 7.03091 -73.80290 421 ft 10 kts 223°
2026-05-07 22:41 7.02894 -73.80409 419 ft 72 kts 210°
2026-05-07 22:41 7.02235 -73.80804 421 ft 149 kts 211°
2026-05-07 22:41 7.01301 -73.81377 974 ft 158 kts 211°
2026-05-07 22:41 7.00354 -73.81945 1628 ft 158 kts 210°
2026-05-07 22:42 6.99394 -73.82516 2219 ft 164 kts 210°
2026-05-07 22:42 6.98357 -73.83135 2413 ft 184 kts 211°
2026-05-07 22:42 6.97164 -73.83849 2499 ft 215 kts 211°
2026-05-07 22:42 6.95815 -73.84655 2783 ft 236 kts 211°
2026-05-07 22:43 6.94330 -73.85542 3085 ft 260 kts 211°
2026-05-07 22:43 6.92726 -73.86502 3649 ft 273 kts 211°
2026-05-07 22:43 6.91078 -73.87488 4451 ft 278 kts 211°
2026-05-07 22:43 6.89409 -73.88487 5257 ft 281 kts 212°
2026-05-07 22:44 6.87652 -73.89362 6067 ft 284 kts 200°
2026-05-07 22:44 6.85713 -73.89777 6844 ft 288 kts 185°
2026-05-07 22:44 6.83699 -73.89849 7605 ft 291 kts 182°
2026-05-07 22:44 6.81662 -73.89914 8354 ft 295 kts 182°
2026-05-07 22:45 6.79599 -73.89983 9099 ft 298 kts 181°
2026-05-07 22:45 6.77539 -73.90053 9818 ft 302 kts 181°
2026-05-07 22:45 6.75421 -73.90126 10405 ft 310 kts 181°
2026-05-07 22:45 6.73183 -73.90204 10565 ft 334 kts 181°
2026-05-07 22:46 6.70794 -73.90286 10862 ft 350 kts 181°
2026-05-07 22:46 6.68336 -73.90372 11444 ft 355 kts 181°
2026-05-07 22:46 6.65852 -73.90457 12088 ft 358 kts 181°
2026-05-07 22:46 6.63351 -73.90542 12740 ft 362 kts 180°
2026-05-07 22:47 6.60825 -73.90629 13380 ft 365 kts 180°
2026-05-07 22:47 6.58272 -73.90721 13965 ft 368 kts 180°
2026-05-07 22:47 6.55706 -73.90815 14547 ft 370 kts 181°
2026-05-07 22:47 6.53110 -73.90909 15100 ft 373 kts 181°
2026-05-07 22:48 6.50529 -73.90999 15632 ft 377 kts 180°
2026-05-07 22:48 6.47898 -73.91087 16161 ft 380 kts 181°
2026-05-07 22:48 6.45253 -73.91331 16680 ft 384 kts 189°
2026-05-07 22:48 6.42612 -73.91827 17208 ft 388 kts 189°
2026-05-07 22:49 6.39952 -73.92326 17732 ft 391 kts 189°
2026-05-07 22:49 6.37269 -73.92830 18225 ft 394 kts 189°
2026-05-07 22:49 6.34559 -73.93338 18652 ft 397 kts 189°
2026-05-07 22:49 6.31829 -73.93848 19056 ft 401 kts 189°
2026-05-07 22:50 6.29078 -73.94362 19495 ft 404 kts 190°
2026-05-07 22:50 6.26304 -73.94880 19964 ft 407 kts 189°
2026-05-07 22:50 6.23513 -73.95403 20392 ft 410 kts 189°
2026-05-07 22:50 6.20695 -73.95930 20819 ft 413 kts 189°
2026-05-07 22:51 6.17866 -73.96457 21309 ft 415 kts 189°
2026-05-07 22:51 6.15019 -73.96987 21727 ft 417 kts 189°
2026-05-07 22:51 6.12165 -73.97522 21869 ft 416 kts 189°
2026-05-07 22:51 6.09330 -73.98054 21894 ft 414 kts 190°
2026-05-07 22:52 6.06502 -73.98585 21887 ft 413 kts 189°
2026-05-07 22:52 6.03681 -73.99114 21893 ft 413 kts 189°
2026-05-07 22:52 6.00854 -73.99642 21897 ft 413 kts 189°
2026-05-07 22:52 5.98032 -74.00170 21919 ft 413 kts 189°
2026-05-07 22:53 5.95211 -74.00702 21923 ft 414 kts 189°
2026-05-07 22:53 5.92375 -74.01239 21917 ft 415 kts 189°
2026-05-07 22:53 5.89537 -74.01778 21922 ft 415 kts 189°
2026-05-07 22:53 5.86697 -74.02320 21919 ft 415 kts 189°
2026-05-07 22:54 5.83858 -74.02863 21950 ft 416 kts 190°
2026-05-07 22:54 5.81015 -74.03407 21965 ft 415 kts 190°
2026-05-07 22:54 5.78180 -74.03946 21967 ft 414 kts 190°
2026-05-07 22:54 5.75350 -74.04481 21968 ft 414 kts 189°
2026-05-07 22:55 5.72522 -74.05016 21967 ft 413 kts 190°
2026-05-07 22:55 5.69700 -74.05552 21991 ft 413 kts 190°
2026-05-07 22:55 5.66876 -74.06088 21989 ft 413 kts 190°
2026-05-07 22:55 5.64055 -74.06624 21986 ft 412 kts 190°
2026-05-07 22:56 5.61239 -74.07158 21985 ft 412 kts 190°
2026-05-07 22:56 5.58423 -74.07691 21930 ft 411 kts 190°
2026-05-07 22:56 5.55610 -74.08224 21960 ft 411 kts 190°
2026-05-07 22:56 5.52802 -74.08756 21954 ft 411 kts 190°
2026-05-07 22:57 5.50026 -74.09283 21957 ft 411 kts 190°
2026-05-07 22:57 5.47214 -74.09817 21956 ft 411 kts 190°
2026-05-07 22:57 5.44429 -74.10480 21951 ft 411 kts 199°
2026-05-07 22:57 5.41842 -74.11692 21984 ft 412 kts 211°
2026-05-07 22:58 5.39577 -74.13445 21968 ft 413 kts 224°
2026-05-07 22:58 5.37645 -74.15579 21968 ft 414 kts 228°
2026-05-07 22:58 5.35739 -74.17749 21965 ft 414 kts 228°
2026-05-07 22:58 5.33844 -74.19895 21910 ft 404 kts 228°
2026-05-07 22:59 5.31995 -74.21982 21559 ft 397 kts 228°
2026-05-07 22:59 5.30167 -74.24039 21158 ft 393 kts 228°
2026-05-07 22:59 5.28359 -74.26077 20720 ft 390 kts 228°
2026-05-07 22:59 5.26568 -74.28102 20327 ft 386 kts 228°
2026-05-07 23:00 5.24965 -74.30211 20197 ft 375 kts 240°
2026-05-07 23:00 5.23969 -74.32574 20050 ft 364 kts 255°
2026-05-07 23:00 5.23602 -74.35057 19749 ft 358 kts 270°
2026-05-07 23:00 5.23753 -74.37541 19338 ft 356 kts 275°
2026-05-07 23:01 5.23905 -74.40003 18685 ft 352 kts 268°
2026-05-07 23:01 5.23442 -74.42436 17543 ft 362 kts 248°
2026-05-07 23:01 5.22147 -74.44612 16333 ft 368 kts 227°
2026-05-07 23:01 5.20145 -74.46231 15120 ft 374 kts 206°
2026-05-07 23:02 5.17673 -74.47053 13927 ft 384 kts 186°
2026-05-07 23:02 5.14983 -74.46899 13136 ft 394 kts 167°
2026-05-07 23:02 5.12280 -74.46289 12831 ft 401 kts 166°
2026-05-07 23:02 5.09558 -74.45681 12646 ft 401 kts 166°
2026-05-07 23:03 5.06838 -74.45076 12630 ft 401 kts 166°
2026-05-07 23:03 5.04148 -74.44476 12640 ft 401 kts 166°
2026-05-07 23:03 5.01425 -74.43862 12640 ft 401 kts 166°
2026-05-07 23:03 4.98772 -74.43265 12651 ft 381 kts 166°
2026-05-07 23:04 4.96249 -74.42698 12657 ft 362 kts 166°
2026-05-07 23:04 4.93855 -74.42157 12653 ft 344 kts 164°
2026-05-07 23:04 4.91698 -74.41294 12680 ft 325 kts 147°
2026-05-07 23:04 4.90025 -74.39882 12709 ft 307 kts 129°
2026-05-07 23:05 4.88754 -74.38227 12733 ft 292 kts 126°
2026-05-07 23:05 4.87557 -74.36643 12765 ft 278 kts 127°
2026-05-07 23:05 4.86420 -74.35140 12823 ft 263 kts 126°
2026-05-07 23:05 4.85343 -74.33716 12755 ft 252 kts 126°
2026-05-07 23:06 4.84271 -74.32299 12376 ft 256 kts 126°
2026-05-07 23:06 4.83190 -74.30872 12043 ft 257 kts 126°
2026-05-07 23:06 4.82128 -74.29469 11723 ft 247 kts 126°
2026-05-07 23:06 4.81111 -74.28130 11424 ft 237 kts 126°
2026-05-07 23:07 4.80131 -74.26842 11170 ft 225 kts 126°
2026-05-07 23:07 4.79209 -74.25630 10863 ft 212 kts 126°
2026-05-07 23:07 4.78345 -74.24495 10609 ft 196 kts 126°
2026-05-07 23:07 4.77560 -74.23460 10382 ft 179 kts 126°
2026-05-07 23:08 4.76836 -74.22501 10175 ft 167 kts 126°
2026-05-07 23:08 4.76146 -74.21584 9939 ft 164 kts 127°
2026-05-07 23:08 4.75471 -74.20689 9731 ft 163 kts 127°
2026-05-07 23:08 4.74788 -74.19784 9541 ft 163 kts 127°
2026-05-07 23:09 4.74100 -74.18874 9291 ft 164 kts 126°
2026-05-07 23:09 4.73411 -74.17962 9067 ft 164 kts 126°
2026-05-07 23:09 4.72726 -74.17053 8844 ft 163 kts 126°
2026-05-07 23:09 4.72044 -74.16149 8634 ft 161 kts 126°
2026-05-07 23:10 4.71373 -74.15258 8422 ft 159 kts 126°
2026-05-07 23:10 4.70744 -74.14421 8373 ft 134 kts 128°
2026-05-07 23:10 4.70284 -74.13816 8369 ft 84 kts 127°
2026-05-07 23:10 4.70022 -74.13468 8370 ft 39 kts 127°
2026-05-07 23:11 4.69927 -74.13388 8372 ft 9 kts 210°
2026-05-07 23:11 4.69915 -74.13442 8372 ft 7 kts 264°
2026-05-07 23:11 4.69911 -74.13480 8373 ft 4 kts 264°
2026-05-07 23:11 4.69908 -74.13511 8372 ft 9 kts 264°
2026-05-07 23:12 4.69896 -74.13607 8373 ft 16 kts 261°
2026-05-07 23:12 4.69881 -74.13715 8373 ft 16 kts 272°
2026-05-07 23:12 4.69942 -74.13807 8373 ft 18 kts 308°
2026-05-07 23:12 4.70028 -74.13921 8373 ft 23 kts 307°
2026-05-07 23:13 4.70130 -74.14053 8373 ft 25 kts 308°
2026-05-07 23:13 4.70233 -74.14191 8373 ft 25 kts 307°
2026-05-07 23:13 4.70337 -74.14327 8372 ft 18 kts 303°
2026-05-07 23:13 4.70284 -74.14418 8373 ft 21 kts 216°
2026-05-07 23:14 4.70174 -74.14496 8372 ft 13 kts 195°
2026-05-07 23:14 4.70116 -74.14449 8372 ft 4 kts 128°
2026-05-07 23:14 4.70114 -74.14448 8372 ft 0 kts 127°